Weather History for KPHN - March, 2013

Change the Weather History Date:

Sunday, March 17, 2013

  Actual Average (KMTC) Record (KMTC)
Temperature  
Mean Temperature 24 °F -  
Max Temperature 26 °F 40 °F 71 °F (2012)
Min Temperature 21 °F 24 °F 7 °F (2014)
Degree Days  
Heating Degree Days 42    
Moisture  
Dew Point 18 °F    
Average Humidity 77    
Maximum Humidity 93    
Minimum Humidity 64    
Precipitation  
Precipitation 0.00 in - - ()
Sea Level Pressure  
Sea Level Pressure 30.19 in    
Wind  
Wind Speed 5 mph (North)    
Max Wind Speed 14 mph    
Max Gust Speed 21 mph    
Visibility 10 miles    
Events Snow    
Averages and records for this station are not official NWS values.
T = Trace of Precipitation, MM = Missing Value Source: NWS Daily Summary

Daily Weather History Graph

Daily Weather History Graph

Search for Another Location

Airport or City:

Trip Planner

Search our weather history database for the weather conditions in past years. The results will help you decide how hot, cold, wet, or windy it might be!

Date:

Astronomy

Mar. 17, 2013 Rise Set
Actual Time 7:38 AM EDT 7:39 PM EDT
Civil Twilight 7:10 AM EDT 8:07 PM EDT
Nautical Twilight 6:37 AM EDT 8:40 PM EDT
Astronomical Twilight 6:03 AM EDT 9:14 PM EDT
Moon 10:42 AM EDT (3/17) 12:53 AM EDT (3/17)
Length of Visible Light 12h 57m
Length of Day
12h 00m
Waxing Crescent, 31% of the Moon is Illuminated
Mar 17
Waxing Crescent
Mar 19
First Quarter
Mar 27
Full
Apr 3
Last Quarter
Apr 10
New

Hourly Weather History & Observations

Time (EDT) Temp. Windchill Dew Point Humidity Pressure Visibility Wind Dir Wind Speed Gust Speed Precip Events Conditions
12:16 AM 26.6 °F 22.6 °F 23.0 °F 86% 30.02 in 10.0 mi South 3.5 mph - N/A   Overcast
12:36 AM 26.6 °F - 23.0 °F 86% 30.02 in 10.0 mi Calm Calm - N/A   Overcast
12:56 AM 26.6 °F - 23.0 °F 86% 30.02 in 10.0 mi Calm Calm - N/A   Overcast
1:16 AM 26.6 °F - 23.0 °F 86% 30.02 in 10.0 mi Calm Calm - N/A   Overcast
1:37 AM 26.6 °F - 23.0 °F 86% 30.03 in 10.0 mi Calm Calm - N/A   Overcast
1:56 AM 26.6 °F - 23.0 °F 86% 30.03 in 10.0 mi Calm Calm - N/A   Overcast
2:16 AM 26.6 °F - 24.8 °F 93% 30.03 in 10.0 mi Calm Calm - N/A   Overcast
2:37 AM 26.6 °F - 24.8 °F 93% 30.04 in 10.0 mi Calm Calm - N/A   Overcast
2:56 AM 26.6 °F - 24.8 °F 93% 30.04 in 10.0 mi Calm Calm - N/A   Overcast
3:17 AM 26.6 °F 22.6 °F 24.8 °F 93% 30.05 in 7.0 mi NNW 3.5 mph - N/A Snow Light Snow
3:36 AM 26.6 °F 21.2 °F 24.8 °F 93% 30.07 in 7.0 mi NNW 4.6 mph - N/A Snow Light Snow
3:56 AM 26.6 °F 20.0 °F 24.8 °F 93% 30.08 in 5.0 mi NW 5.8 mph - N/A Snow Light Snow
4:17 AM 26.6 °F 19.1 °F 23.0 °F 86% 30.07 in 10.0 mi NNW 6.9 mph - N/A   Overcast
4:36 AM 26.6 °F 20.0 °F 23.0 °F 86% 30.07 in 10.0 mi NNW 5.8 mph - N/A   Overcast
4:57 AM 24.8 °F 16.1 °F 21.2 °F 86% 30.08 in 10.0 mi NW 8.1 mph - N/A   Overcast
5:16 AM 24.8 °F 20.5 °F 19.4 °F 80% 30.07 in 10.0 mi WNW 3.5 mph - N/A   Mostly Cloudy
5:36 AM 23.0 °F 17.0 °F 19.4 °F 86% 30.08 in 10.0 mi NW 4.6 mph - N/A   Clear
5:57 AM 23.0 °F 17.0 °F 19.4 °F 86% 30.10 in 10.0 mi WNW 4.6 mph - N/A   Clear
6:16 AM 23.0 °F 17.0 °F 19.4 °F 86% 30.11 in 10.0 mi WNW 4.6 mph - N/A   Mostly Cloudy
6:36 AM 23.0 °F 17.0 °F 19.4 °F 86% 30.12 in 10.0 mi NW 4.6 mph - N/A   Overcast
6:56 AM 23.0 °F 14.7 °F 19.4 °F 86% 30.14 in 4.0 mi NNW 6.9 mph - N/A Snow Light Snow
7:16 AM 23.0 °F 12.4 °F 19.4 °F 86% 30.15 in 7.0 mi NNW 10.4 mph 18.4 mph N/A Snow Light Snow
7:36 AM 21.2 °F 12.6 °F 17.6 °F 86% 30.16 in 10.0 mi NNW 6.9 mph - N/A   Scattered Clouds
7:56 AM 21.2 °F 11.7 °F 17.6 °F 86% 30.17 in 10.0 mi NNW 8.1 mph - N/A   Scattered Clouds
8:17 AM 21.2 °F 11.7 °F 17.6 °F 86% 30.18 in 10.0 mi NNW 8.1 mph - N/A   Scattered Clouds
8:36 AM 21.2 °F 10.9 °F 17.6 °F 86% 30.19 in 10.0 mi NNW 9.2 mph - N/A   Clear
8:56 AM 23.0 °F 13.1 °F 15.8 °F 74% 30.20 in 10.0 mi North 9.2 mph - N/A   Clear
9:17 AM 23.0 °F 14.7 °F 15.8 °F 74% 30.21 in 10.0 mi NW 6.9 mph - N/A   Clear
9:36 AM 23.0 °F 12.4 °F 15.8 °F 74% 30.22 in 10.0 mi NNW 10.4 mph - N/A   Clear
9:57 AM 24.8 °F 14.0 °F 15.8 °F 69% 30.23 in 10.0 mi North 11.5 mph 17.3 mph N/A   Scattered Clouds
10:16 AM 24.8 °F 15.3 °F 15.8 °F 69% 30.23 in 10.0 mi North 9.2 mph 17.3 mph N/A   Clear
10:36 AM 24.8 °F 14.0 °F 15.8 °F 69% 30.24 in 10.0 mi NNW 11.5 mph 18.4 mph N/A   Clear
10:57 AM 24.8 °F 14.6 °F 15.8 °F 69% 30.25 in 10.0 mi NNW 10.4 mph - N/A   Clear
11:16 AM 24.8 °F 14.6 °F 17.6 °F 74% 30.25 in 10.0 mi North 10.4 mph - N/A   Clear
11:36 AM 26.6 °F 17.5 °F 17.6 °F 69% 30.26 in 10.0 mi NNW 9.2 mph 16.1 mph N/A   Scattered Clouds
11:56 AM 24.8 °F 14.6 °F 17.6 °F 74% 30.26 in 10.0 mi North 10.4 mph 16.1 mph N/A   Mostly Cloudy
12:17 PM 26.6 °F 15.7 °F 17.6 °F 69% 30.27 in 10.0 mi NNE 12.7 mph 17.3 mph N/A   Overcast
12:36 PM 26.6 °F 16.2 °F 17.6 °F 69% 30.27 in 10.0 mi NE 11.5 mph - N/A   Overcast
12:56 PM 26.6 °F 16.8 °F 15.8 °F 64% 30.27 in 10.0 mi NNE 10.4 mph - N/A   Overcast
1:17 PM 26.6 °F 15.7 °F 15.8 °F 64% 30.28 in 10.0 mi NNE 12.7 mph - N/A   Overcast
1:36 PM 26.6 °F 18.2 °F 15.8 °F 64% 30.28 in 10.0 mi NE 8.1 mph 17.3 mph N/A   Overcast
1:56 PM 26.6 °F 17.5 °F 15.8 °F 64% 30.27 in 10.0 mi NNE 9.2 mph - N/A   Overcast
2:17 PM 26.6 °F 17.5 °F 15.8 °F 64% 30.27 in 10.0 mi NNE 9.2 mph 16.1 mph N/A   Mostly Cloudy
2:36 PM 26.6 °F 18.2 °F 15.8 °F 64% 30.27 in 10.0 mi NNE 8.1 mph - N/A   Scattered Clouds
2:57 PM 26.6 °F 15.2 °F 17.6 °F 69% 30.27 in 10.0 mi NNE 13.8 mph 18.4 mph N/A   Mostly Cloudy
3:16 PM 26.6 °F 16.8 °F 17.6 °F 69% 30.27 in 10.0 mi ENE 10.4 mph 16.1 mph N/A   Mostly Cloudy
3:36 PM 26.6 °F 16.8 °F 15.8 °F 64% 30.26 in 10.0 mi North 10.4 mph - N/A   Scattered Clouds
3:57 PM 26.6 °F 16.2 °F 17.6 °F 69% 30.26 in 10.0 mi NNE 11.5 mph 18.4 mph N/A   Scattered Clouds
4:16 PM 26.6 °F 17.5 °F 15.8 °F 64% 30.26 in 10.0 mi North 9.2 mph 18.4 mph N/A   Clear
4:36 PM 26.6 °F 18.2 °F 15.8 °F 64% 30.26 in 10.0 mi NE 8.1 mph 16.1 mph N/A   Clear
4:56 PM 26.6 °F 17.5 °F 15.8 °F 64% 30.27 in 10.0 mi NE 9.2 mph 20.7 mph N/A   Scattered Clouds
5:17 PM 24.8 °F 14.6 °F 15.8 °F 69% 30.26 in 10.0 mi NE 10.4 mph - N/A   Scattered Clouds
5:36 PM 24.8 °F 15.3 °F 15.8 °F 69% 30.26 in 10.0 mi NE 9.2 mph - N/A   Scattered Clouds
5:56 PM 24.8 °F 14.6 °F 14.0 °F 64% 30.26 in 10.0 mi NE 10.4 mph - N/A   Scattered Clouds
6:17 PM 24.8 °F 13.4 °F 15.8 °F 69% 30.26 in 10.0 mi NE 12.7 mph - N/A   Clear
6:36 PM 23.0 °F 14.7 °F 15.8 °F 74% 30.27 in 10.0 mi NE 6.9 mph - N/A   Clear
6:57 PM 23.0 °F 13.9 °F 14.0 °F 68% 30.27 in 10.0 mi NE 8.1 mph - N/A   Clear
7:16 PM 23.0 °F 12.4 °F 15.8 °F 74% 30.26 in 10.0 mi NNE 10.4 mph - N/A   Clear
7:37 PM 23.0 °F 13.9 °F 14.0 °F 68% 30.26 in 10.0 mi NNE 8.1 mph - N/A   Clear
7:56 PM 23.0 °F 15.8 °F 14.0 °F 68% 30.27 in 10.0 mi NNE 5.8 mph - N/A   Clear
8:16 PM 21.2 °F 14.9 °F 14.0 °F 74% 30.28 in 10.0 mi NNE 4.6 mph - N/A   Clear
8:37 PM 21.2 °F 16.4 °F 15.8 °F 80% 30.28 in 10.0 mi NNE 3.5 mph - N/A   Clear
8:56 PM 21.2 °F 14.9 °F 15.8 °F 80% 30.27 in 10.0 mi NNE 4.6 mph - N/A   Clear
9:16 PM 21.2 °F - 15.8 °F 80% 30.28 in 10.0 mi Calm Calm - N/A   Clear
9:36 PM 21.2 °F 14.9 °F 15.8 °F 80% 30.27 in 10.0 mi NE 4.6 mph - N/A   Clear
9:56 PM 21.2 °F 14.9 °F 15.8 °F 80% 30.27 in 10.0 mi NE 4.6 mph - N/A   Clear
10:17 PM 21.2 °F 12.6 °F 17.6 °F 86% 30.26 in 10.0 mi NE 6.9 mph - N/A   Clear
10:36 PM 21.2 °F 14.9 °F 15.8 °F 80% 30.26 in 10.0 mi ENE 4.6 mph - N/A   Clear
10:56 PM 21.2 °F 13.6 °F 15.8 °F 80% 30.26 in 10.0 mi ENE 5.8 mph - N/A   Clear
11:17 PM 21.2 °F 13.6 °F 15.8 °F 80% 30.25 in 10.0 mi ENE 5.8 mph - N/A   Clear
11:36 PM 21.2 °F 13.6 °F 15.8 °F 80% 30.24 in 10.0 mi ENE 5.8 mph - N/A   Clear
11:57 PM 21.2 °F 10.1 °F 14.0 °F 74% 30.22 in 10.0 mi East 10.4 mph - N/A   Clear